This is the latest recevied weather packets stored in our database for station/object EA3FHP. If no packets are shown the sender has not sent any weather packets the latest 10 day(s).
| Time | Temp. | Humidity | Pressure | Rain* | Wind** | Luminosity | Snow |
|---|---|---|---|---|---|---|---|
| 1787766603 | 27.78° C | 47% | 1014.1 hPa | 0 mm | - | - | - |
| 1787766003 | 28.33° C | 49% | 1014.3 hPa | 0 mm | - | - | - |
| 1787765404 | 28.89° C | 47% | 1014.4 hPa | 0 mm | - | - | - |
| 1787764804 | 29.44° C | 46% | 1014.2 hPa | 0 mm | - | - | - |
| 1787764203 | 29.44° C | 45% | 1014.2 hPa | 0 mm | - | - | - |
| 1787763604 | 30° C | 47% | 1014 hPa | 0 mm | - | - | - |
| 1787763003 | 30.56° C | 46% | 1014.4 hPa | 0 mm | - | - | - |
| 1787762404 | 30.56° C | 44% | 1014.4 hPa | 0 mm | - | - | - |
| 1787761803 | 30.56° C | 43% | 1014.4 hPa | 0 mm | - | - | - |
| 1787761204 | 30.56° C | 44% | 1014.2 hPa | 0 mm | - | - | - |
| 1787760604 | 31.11° C | 42% | 1014.4 hPa | 0 mm | - | - | - |
| 1787760004 | 30.56° C | 40% | 1014.2 hPa | 0 mm | - | - | - |
| 1787759404 | 31.11° C | 42% | 1014.4 hPa | 0 mm | - | - | - |
| 1787758803 | 30.56° C | 42% | 1014.5 hPa | 0 mm | - | - | - |
| 1787758203 | 30.56° C | 47% | 1014.8 hPa | 0 mm | - | - | - |
| 1787757604 | 30° C | 51% | 1014.9 hPa | 0 mm | - | - | - |
| 1787757003 | 29.44° C | 48% | 1014.9 hPa | 0 mm | - | - | - |
| 1787756404 | 29.44° C | 50% | 1015 hPa | 0 mm | - | - | - |
| 1787755803 | 30° C | 49% | 1014.9 hPa | 0 mm | - | - | - |
| 1787755203 | 29.44° C | 48% | 1015.3 hPa | 0 mm | - | - | - |
| 1787754604 | 28.89° C | 49% | 1015.2 hPa | 0 mm | - | - | - |
| 1787754004 | 29.44° C | 50% | 1015.1 hPa | 0 mm | - | - | - |
| 1787752804 | 28.33° C | 51% | 1014.8 hPa | 0 mm | - | - | - |
| 1787752203 | 28.33° C | 52% | 1015 hPa | 0 mm | - | - | - |
| 1787751603 | 28.33° C | 51% | 1015.1 hPa | 0 mm | - | - | - |
* Rain latest hour (hover to see other rain measurements)
** Current wind speed in m/s (hover to see current wind gust speed)